Home > Weather > Sarh > Past weeks

Flag for Chad Past Weather in Sarh, Chad — Yesterday and Last 2 Weeks

Now
81 °F

Scattered clouds.


Feels Like: 85 °F
Forecast: 75 / 89 °F
Wind: 5 mph from Southwest

Location: Sarh Airport

Current Time: Jun 26, 2016 at 9:17:14 AM

Latest Report: Jun 26, 2016 at 8:00 AM


Visibility: N/A

Pressure: 29.95 "Hg

Humidity: 79%

Dew Point: 73 °F

Location of SarhLocation

Past Weather in Sarh — Graph

°F

Sarh Temperature Yesterday

Maximum temperature yesterday: 88 °F (at 2:00 PM)
Minimum temperature yesterday: 73 °F (at 8:00 AM)
Average temperature yesterday: 82 °F

High & Low Weather Summary for the Past Weeks

 TemperatureHumidityPressure
High97 °F (Jun 11, 2:00 PM)100% (Jun 12, 7:00 AM)30.09 "Hg (Jun 12, 7:00 AM)
Low70 °F (Jun 12, 6:00 AM)39% (Jun 18, 1:00 PM)29.80 "Hg (Jun 19, 10:00 AM)
Average82 °F74%29.96 "Hg
* Reported Jun 11 8:00 AM — Jun 26 8:00 AM, Sarh, Weather by CustomWeather, © 2016

Note: Actual official high and low records may vary slightly from our data, if they occured in-between our weather recording intervals... More about our weather records

Advertising

Sarh Weather History for the Previous 24 Hours

Scroll right to see more
 ConditionsComfort  
Time TempWeatherWind HumidityBarometerVisibility
8:00 AM
Sun, Jun 26
81 °FScattered clouds.5 mph79%29.95 "HgN/A
7:00 AM77 °FPassing clouds.12 mph89%29.95 "HgN/A
6:00 AM77 °FSunny.12 mph89%29.95 "Hg10 mi
5:00 AM77 °FThunderstorms. Passing clouds.12 mph89%29.92 "HgN/A
4:00 AM77 °FThunderstorms. Passing clouds.7 mph94%29.92 "HgN/A
3:00 AM79 °FThunderstorms. Passing clouds.12 mph84%29.95 "HgN/A
1:00 AM79 °FClear.5 mph84%29.89 "Hg10 mi
12:00 AM81 °FClear.7 mph79%29.92 "Hg10 mi
11:00 PM
Sat, Jun 25
81 °FClear.7 mph84%29.92 "Hg10 mi
10:00 PM81 °FPassing clouds.7 mph84%29.92 "HgN/A
9:00 PM81 °FThunderstorms. Passing clouds.No wind84%29.92 "HgN/A
8:00 PM81 °FThunderstorms. Passing clouds.No wind84%29.92 "HgN/A
7:00 PM82 °FThunderstorms. Passing clouds.No wind74%29.89 "HgN/A
6:00 PM84 °FPassing clouds.5 mph74%29.86 "HgN/A
5:00 PM86 °FPassing clouds.7 mph70%29.86 "HgN/A
4:00 PM88 °FScattered clouds.9 mph66%29.86 "HgN/A
3:00 PM88 °FBroken clouds.7 mph66%29.86 "HgN/A
2:00 PM88 °FBroken clouds.9 mph66%29.86 "HgN/A
1:00 PM86 °FBroken clouds.12 mph70%29.89 "HgN/A
12:00 PM84 °FPassing clouds.9 mph70%29.92 "HgN/A
11:00 AM81 °FSunny.7 mph74%29.95 "Hg10 mi
9:00 AM75 °FScattered clouds.7 mph89%29.98 "HgN/A
Weather by CustomWeather, © 2016

See weather overviewHow to use our weather pages